Regional Weather Roundup
Issued by NWS Sterling, VA

Home | Current Version | Previous Version | Text Only | Print | Product List | Glossary Off
Versions: 1 2 3 4 5 6 7 8 9 10 11 12 13 14 15 16 17 18 19 20 21 22 23 24 25 26 27 28

000
ASUS41 KLWX 271711
RWRLWX

REGIONAL WEATHER ROUNDUP
NATIONAL WEATHER SERVICE BALTIMORE MD/WASHINGTON DC
100 PM EDT MON MAR 27 2017

Note: "FAIR" indicates few or no clouds below 12,000 feet
with no significant weather and/or obstructions to visibility.
 TC=TEMPERATURE CELSIUS

 * =Non NWS site. Station does not report precipitation (e.g. rain,
    snow, etc.), thunder, or fog.

DCZ001-MDZ009-015-VAZ040>042-051-053>054-271800-
WASHINGTON METRO

CITY           SKY/WX    TMP DP  RH WIND       PRES   REMARKS
WASHINGTON NAT PTSUNNY   60  55  83 S7        30.05F
DULLES         MOSUNNY   62  54  74 W6        30.03F
COLLEGE PARK*  CLOUDY    59  52  77 S5        30.04F
LEESBURG*      CLOUDY    57  55  94 CALM      30.05F
MANASSAS*        N/A    N/A N/A N/A VRB3      30.03F

$$

MDZ006>007-011-014-271800-
BALTIMORE METRO

CITY           SKY/WX    TMP DP  RH WIND       PRES   REMARKS
BWI AIRPORT    CLOUDY    56  53  90 SW5       30.05F
MARTIN STATE   CLOUDY    52  52 100 SE3       30.07F
ANNAPOLIS      CLOUDY    54  51  90 SE7       30.05F
FORT MEADE*    CLOUDY    59  52  77 SW3       30.07F

$$

MDZ012-015-019>023-271800-
MARYLAND EASTERN SHORE

CITY           SKY/WX    TMP DP  RH WIND       PRES   REMARKS
OCEAN CITY     PTSUNNY   65  53  65 S14       30.07F
SALISBURY      MOSUNNY   73  57  57 SW17      30.05F
BAY BRIDGE AP* CLOUDY    57  52  82 W5        30.05F HAZE
CAMBRIDGE*     PTSUNNY   70  57  64 MISG      30.05F
EASTON*        PTSUNNY   66  55  68 SW15      30.08F

$$

MDZ017>025-271800-
SOUTHERN MARYLAND

CITY           SKY/WX    TMP DP  RH WIND       PRES   REMARKS
PATUXENT RIVER PTSUNNY   71  59  65 SW16G24   30.04F
ST INIGOES     CLOUDY    71  57  61 S15       30.04F
LEONARDTOWN*   PTSUNNY   70  55  60 SW12G20   30.05F

$$

MDZ003>005-271800-
NORTH CENTRAL MARYLAND

CITY           SKY/WX    TMP DP  RH WIND       PRES   REMARKS
FREDERICK*     CLOUDY    55  55 100 SW3       30.08F FOG
HAGERSTOWN APT CLOUDY    53  50  89 W5        30.04S
WESTMINSTER*   NOT AVBL

$$

MDZ501>502-271800-
WESTERN MARYLAND

CITY           SKY/WX    TMP DP  RH WIND       PRES   REMARKS
OAKLAND*       CLOUDY    54  50  87 W10G18    30.04S
CUMBERLAND*    CLOUDY    55  52  88 CALM      30.06F

$$

VAZ025>031-271800-
SHENANDOAH VALLEY

CITY           SKY/WX    TMP DP  RH WIND       PRES   REMARKS
WINCHESTER*    CLOUDY    59  52  77 NE5       30.01F
FRONT ROYAL*   CLOUDY    70  59  68 CALM      29.99F
LURAY*         MOSUNNY   73  55  53 SW10G17   30.00F
NEW MARKET*    SUNNY     72  55  55 SW13G18   29.99F
STAUNTON*      PTSUNNY   71  55  56 SW13G18   30.05F
WAYNESBORO*    SUNNY     70  57  65 SW12      30.04F

$$

WVZ021-048>050-054>055-271800-
EASTERN WEST VIRGINIA PANHANDLE

CITY           SKY/WX    TMP DP  RH WIND       PRES   REMARKS
MARTINSBURG    CLOUDY    55  50  83 CALM      30.03F
PETERSBURG*    CLOUDY    62  55  80 CALM      30.02F

$$

VAZ036>039-050-271800-
CENTRAL FOOTHILLS

CITY           SKY/WX    TMP DP  RH WIND       PRES   REMARKS
CHARLOTTESVILL SUNNY     71  58  63 S9        30.03F
CULPEPER*      SUNNY     70  59  69 SW9       30.04F
ORANGE*        SUNNY     68  57  68 S13G18    30.05F
GORDONSVILLE*  MOSUNNY   67  59  74 SW8       30.03F
WARRENTON*     SUNNY     70  55  59 SW8       30.02F

$$

VAZ055>057-271800-
NORTH AND CENTRAL PIEDMONT

CITY           SKY/WX    TMP DP  RH WIND       PRES   REMARKS
FREDERICKSBRG* SUNNY     71  60  67 SW9G16    30.03F
STAFFORD*      SUNNY     70  59  69 SW6       30.07F

$$

NCZ024-NYZ072-PAZ021-071-VAZ022-071-271800-
OTHER REGIONAL OBSERVATIONS

CITY           SKY/WX    TMP DP  RH WIND       PRES   REMARKS
NEW YORK CITY  CLOUDY    48  43  82 NE3       30.07F
PHILADELPHIA   CLOUDY    51  49  92 S3        30.06F FOG
PITTSBURGH     PTSUNNY   61  50  67 W9        29.99S
ROANOKE        MOSUNNY   74  57  55 SE7       30.06F
RICHMOND       CLOUDY    74  58  57 SW16G22   30.06F
RALEIGH        PTSUNNY   72  58  61 W9        30.10F

$$

ANZ530>537-271800-
MARINE OBSERVATIONS

STATION/POSITION TIME  TEMP    WIND        PRES
                       AIR SEA DIR/SP/G
                 (UTC) (F)     (DEG/KT/KT) (MB)
THOMAS PT LIGHT  1600   47 45  140/  4/  4   N/A
BALT KEY BRIDGE  1648   46     130/  3/  3 1017.9F
COVE POINT       1648          180/  8/ 11 1018.0F
LEWISETTA        1648   67 52  220/ 14/ 17 1017.1F
SOLOMONS ISLAND  1648   63 47  220/ 14/ 19   N/A
PINEY POINT      1648          250/  6/ 10   N/A

$$





USA.gov is the U.S. government's official web portal to all federal, state and local government web resources and services.